This demonstration page uses our WeatherBlox Daily Observations layout. Learn more.

Left ArrowRight Arrow

39.29038, -76.61219

Hourly Observations for February 4, 2021

Temp ( °F °C ) Dew Point ( °F °C ) Humidity (%) Winds ( mph kmh ) Pressure ( in mb ) Visibility ( mi km ) Precip ( " mm )
12:54 am 00:54 Clear 32 undefined 18 -7.8 56 56 W 13 20 29.87 1012 10 16 N/A
1:54 am 01:54 Clear 31 -0.6 17 -8.3 56 56 W 10 17 29.88 1012 10 16 N/A
2:54 am 02:54 Clear 30 -1.1 16 -8.9 56 56 W 9 15 29.90 1013 10 16 N/A
3:54 am 03:54 Clear 29 -1.7 15 -9.4 56 56 W 12 19 29.91 1013 10 16 N/A
4:54 am 04:54 Clear 28 -2.2 15 -9.4 58 58 W 12 19 29.92 1013 10 16 N/A
5:54 am 05:54 Clear 28 -2.2 14 -10 56 56 W 13 20 29.94 1014 10 16 N/A
6:54 am 06:54 Clear 27 -2.8 14 -10 58 58 W 10 17 29.96 1014 10 16 N/A
7:54 am 07:54 Sunny 29 -1.7 14 -10 54 54 W 10 17 29.98 1015 10 16 N/A
8:54 am 08:54 Mostly Sunny 32 undefined 15 -9.4 50 50 W 12 19 30.00 1016 10 16 N/A
9:54 am 09:54 Mostly Sunny 35 1.7 15 -9.4 44 44 W 15 24 30.01 1016 10 16 N/A
10:54 am 10:54 Partly Cloudy 37 2.8 16 -8.9 42 42 W 12 19 30.07 1018 10 16 N/A
11:54 am 11:54 Partly Cloudy 41 5 14 -10 33 33 WNW 10 17 29.99 1016 10 16 N/A
12:54 pm 12:54 Mostly Sunny 43 6.1 16 -8.9 34 34 W 8 13 29.96 1015 10 16 N/A
1:54 pm 13:54 Mostly Sunny 45 7.2 16 -8.9 31 31 NW 3 6 29.93 1014 10 16 N/A
2:54 pm 14:54 Mostly Sunny 46 7.8 18 -7.8 32 32 WSW 9 15 29.94 1014 10 16 N/A
3:54 pm 15:54 Partly Cloudy 46 7.8 16 -8.9 30 30 W 10 17 29.96 1014 10 16 N/A
4:54 pm 16:54 Mostly Cloudy 43 6.1 14 -10 31 31 NW 3 6 29.94 1014 10 16 N/A
5:54 pm 17:54 Cloudy 41 5 14 -10 33 33 N N/A 29.93 1013 10 16 N/A
6:54 pm 18:54 Cloudy 39 3.9 16 -8.9 39 39 N N/A 29.96 1014 10 16 N/A
7:54 pm 19:54 Cloudy 34 1.1 19 -7.2 54 54 N N/A 29.93 1013 10 16 N/A
8:54 pm 20:54 Cloudy 39 3.9 16 -8.9 39 39 SE 6 9 29.91 1013 10 16 N/A
9:54 pm 21:54 Cloudy 38 3.3 19 -7.2 46 46 ESE 3 6 29.89 1012 10 16 N/A
10:54 pm 22:54 Cloudy 38 3.3 19 -7.2 46 46 ESE 3 6 29.88 1012 10 16 N/A
11:54 pm 23:54 Cloudy 40 4.4 20 -6.7 45 45 N N/A 29.83 1010 10 16 N/A

Powered by AerisWeather